Theta_e
289 287 286 287 288 288 289 289 291 288 286 285 283 282 283 284 285 286 286 287 287 288 286 287 286 285 288 286 287 287 287 286 286 285 285 285 285 284 284 284 284 284 284 286 286 286 286 286 287 287 287 288 288 289 289 289 290 290 290 291 291 292 294 296 297 297 298 299 297 296 295 295 295 295 295 294 295 294 294 294 294 295 295 295 296 298
291 286 287 290 289 289 290 289 287 285 286 287 285 283 285 282 285 286 288 288 287 288 284 282 283 285 286 285 286 286 286 285 284 284 284 284 284 284 284 284 284 284 285 285 285 285 285 285 286 286 286 287 286 287 287 287 288 289 289 289 290 291 292 293 294 294 294 294 294 294 293 293 293 292 291 291 291 292 292 292 292 292 293 293 293 294
285 286 290 291 289 287 286 287 286 286 286 285 285 284 283 285 284 287 287 286 286 287 285 283 285 287 285 284 285 285 284 284 285 285 284 284 283 283 283 283 283 283 283 284 284 284 284 284 284 285 285 285 285 285 286 286 287 288 288 288 289 289 290 291 292 293 293 293 293 292 291 291 290 291 290 290 290 290 289 289 290 290 290 291 291 292
285 286 290 289 288 288 286 284 285 286 285 284 283 283 284 284 285 284 285 285 287 286 285 283 285 288 284 284 284 284 284 284 284 284 283 284 283 282 283 282 282 282 282 283 283 283 283 283 283 284 284 284 285 285 285 285 286 287 287 287 288 288 289 289 290 292 291 292 292 291 291 290 290 289 289 289 288 288 287 286 287 287 287 288 288 289
290 289 289 289 287 289 287 285 285 284 284 283 284 284 284 284 284 286 286 285 284 286 283 284 284 283 285 284 282 284 285 284 283 283 283 283 283 283 283 283 283 282 282 282 282 282 282 282 282 283 283 284 284 284 284 284 285 286 286 286 287 287 288 288 289 289 290 290 290 290 289 289 287 287 286 286 285 285 286 285 285 285 286 286 286 287
287 291 287 287 285 287 287 284 285 286 283 282 283 287 287 286 287 284 283 286 282 282 283 285 279 276 278 280 283 283 283 282 282 281 281 282 282 282 282 282 283 283 282 282 281 281 282 282 282 282 282 283 283 283 283 284 284 284 285 286 286 287 287 287 287 288 288 288 287 287 286 284 283 282 283 282 282 282 283 283 284 284 285 285 285 285
289 289 290 291 286 285 285 284 283 288 283 284 286 286 288 286 285 284 284 285 279 279 284 282 280 274 279 281 282 281 280 281 282 281 282 282 282 282 282 282 282 282 282 282 281 281 281 281 281 282 282 282 282 282 283 283 283 284 284 285 285 285 286 286 286 287 287 286 285 285 284 283 282 281 282 282 282 282 282 283 283 283 284 284 284 284
288 288 287 287 286 286 284 285 285 288 285 283 284 283 285 285 285 283 283 284 280 280 282 282 282 277 276 281 282 282 281 280 280 281 281 282 282 282 282 282 282 281 281 281 281 281 281 281 281 281 281 281 282 281 282 283 283 283 283 283 284 284 285 285 285 285 286 284 284 283 283 283 282 281 281 281 282 282 283 282 282 282 283 283 283 283
288 286 286 286 286 285 287 285 286 288 287 284 285 283 283 285 282 282 283 281 280 282 279 279 281 280 275 279 280 281 281 279 280 280 281 281 282 282 282 282 282 282 281 281 280 281 281 281 281 281 281 281 281 282 282 282 282 282 282 283 283 283 283 283 284 284 284 284 283 282 282 282 282 282 282 282 283 282 282 282 282 282 282 282 283 283
288 289 287 289 287 286 285 284 286 289 287 285 283 283 282 281 281 280 279 282 278 279 273 278 281 277 277 277 281 281 281 281 280 281 281 282 281 282 282 282 282 282 281 281 281 281 281 281 280 280 280 280 280 281 282 281 281 281 282 282 282 281 282 282 282 283 282 282 283 282 281 281 280 281 281 281 281 281 281 281 281 281 281 282 282 282
288 289 289 287 287 286 284 283 283 286 286 284 283 284 282 280 279 278 277 276 277 272 275 281 280 282 277 279 282 280 282 282 282 281 281 281 281 282 282 281 281 281 281 281 280 280 280 280 280 280 279 279 280 280 280 281 281 280 281 281 281 281 281 282 282 282 282 282 282 281 281 281 280 280 281 281 280 281 281 280 280 280 281 281 281 281
286 287 288 286 287 284 284 284 283 282 283 285 285 280 284 282 277 276 269 275 272 270 273 276 278 280 275 277 279 281 281 281 284 282 282 281 282 282 282 282 281 281 281 280 280 280 280 279 279 279 279 279 279 280 280 280 280 281 281 281 281 280 281 281 281 282 281 282 282 281 281 281 280 280 280 280 279 280 279 280 280 280 281 281 281 281
284 286 284 287 288 288 284 284 284 283 285 284 282 284 277 272 270 271 268 273 272 272 277 278 278 279 279 281 282 282 281 281 281 282 283 283 282 282 282 282 282 280 280 280 279 280 280 279 279 279 279 279 279 279 279 280 280 280 281 281 281 280 280 280 280 281 281 281 281 281 281 281 281 280 280 280 279 279 280 280 280 280 280 280 281 281
283 282 284 287 287 287 288 286 282 282 283 283 284 279 274 271 270 266 266 264 267 273 276 280 279 278 278 282 281 282 281 281 281 282 282 284 283 283 282 282 281 280 280 280 279 279 279 279 279 279 279 279 279 279 279 280 280 280 280 280 281 280 280 280 280 280 280 280 280 280 281 281 281 280 280 280 280 280 281 281 280 280 280 280 281 281
276 280 284 287 286 287 290 290 288 283 283 283 282 284 281 273 266 269 265 273 273 274 275 276 275 271 275 282 278 279 280 279 280 280 282 283 282 282 281 280 280 279 279 279 279 279 280 279 279 279 279 278 278 279 279 279 279 279 280 280 280 280 280 279 279 280 280 280 280 280 281 281 281 280 280 281 281 280 280 280 280 280 281 280 280 281
282 281 283 286 286 287 289 287 285 284 284 281 281 282 279 281 278 277 270 267 267 271 271 273 276 276 281 279 280 278 279 279 280 280 282 282 281 280 280 281 280 280 280 279 279 280 279 279 279 279 279 279 279 279 279 279 279 279 279 279 279 280 279 280 280 279 279 279 280 279 279 280 280 281 280 280 280 279 279 279 279 279 279 279 279 280
280 280 283 286 284 285 286 285 287 286 282 282 283 279 282 283 281 272 273 273 271 269 274 269 276 279 280 280 278 277 279 279 279 279 280 280 280 280 281 281 280 280 280 279 280 280 279 279 279 279 278 279 279 279 279 279 279 279 279 279 279 279 279 279 279 279 279 279 279 278 278 278 278 279 279 279 278 278 279 279 278 278 278 278 279 279
281 278 283 285 286 286 284 284 284 284 285 283 278 282 283 283 282 280 274 269 264 270 273 271 276 277 278 277 278 278 278 278 279 279 279 280 279 280 281 281 281 280 280 280 279 279 279 279 279 279 279 279 279 279 279 280 279 279 279 279 279 279 279 279 279 279 279 279 278 278 278 278 278 278 278 278 278 278 278 278 278 277 278 277 278 278
286 281 282 283 284 286 284 287 287 286 285 282 281 283 285 279 279 279 272 271 268 267 268 272 274 276 279 281 278 280 279 280 278 279 278 279 279 280 281 281 280 280 279 279 279 280 280 280 280 280 280 280 279 280 279 279 279 279 279 279 279 279 279 279 279 279 279 279 280 280 278 278 278 278 278 277 277 277 277 277 277 277 277 277 277 277
285 281 281 285 284 285 284 285 281 282 286 285 286 284 284 282 278 276 278 272 272 268 265 272 270 278 279 281 281 283 282 282 279 278 279 280 281 281 281 281 281 280 280 280 280 280 280 280 280 280 280 280 280 280 281 281 281 280 280 280 279 278 278 277 278 278 278 278 279 278 278 277 277 278 277 277 277 277 277 276 276 276 276 277 277 276
286 286 278 282 284 284 282 283 283 284 283 282 283 281 284 278 281 279 277 274 276 265 266 269 274 275 277 279 281 284 283 282 281 280 281 281 281 282 282 282 282 281 280 280 280 280 280 280 280 280 280 281 280 280 280 279 279 280 279 278 278 278 278 278 278 278 278 278 277 277 277 277 277 276 277 276 276 276 276 276 277 276 276 276 276 276
286 283 281 280 281 281 281 282 283 283 284 283 285 284 285 281 279 278 278 278 270 274 272 268 276 277 279 280 280 280 280 282 282 282 282 282 282 282 282 282 281 281 281 281 280 280 280 280 280 280 280 279 280 280 280 280 280 280 280 280 280 280 279 278 278 278 277 277 277 276 276 276 276 276 276 276 276 275 275 275 275 275 275 275 275 275
289 285 280 277 280 283 283 285 283 283 284 284 285 283 284 283 282 278 277 275 272 277 273 272 270 280 280 280 280 282 281 281 283 282 282 282 282 282 283 282 282 282 282 281 280 280 280 280 280 280 280 281 281 282 282 282 283 283 281 280 279 278 277 277 278 277 277 277 277 276 275 276 275 275 275 275 275 274 274 274 274 275 274 274 274 274
292 283 279 278 280 280 284 284 284 283 285 286 285 281 281 284 284 284 282 279 279 276 276 274 275 281 284 281 279 279 280 281 282 282 282 282 283 283 282 282 282 282 281 280 279 279 280 280 280 281 281 282 283 283 283 283 282 281 279 278 277 277 277 277 277 277 277 276 275 275 275 275 274 274 274 274 274 273 274 274 274 274 274 274 273 273
287 286 285 278 276 279 281 284 285 285 285 281 281 282 282 281 282 282 281 281 280 280 281 279 275 281 285 281 281 279 280 279 281 282 282 282 282 282 282 282 282 281 280 280 280 280 280 280 281 282 283 283 283 282 281 280 279 279 279 278 278 278 277 277 277 277 276 275 275 275 275 274 274 274 274 273 273 273 273 273 273 273 273 272 272 272
289 286 285 280 278 277 276 276 279 281 283 283 282 282 283 285 283 283 280 281 279 282 281 277 280 284 282 282 281 280 280 280 280 281 281 281 281 282 282 282 281 281 281 281 281 281 281 282 282 282 281 281 280 280 280 280 279 279 279 279 277 277 277 277 276 275 275 275 275 275 274 274 273 274 273 273 273 273 273 273 272 272 272 271 270 271
287 285 286 286 284 283 284 283 285 284 282 282 282 284 286 285 286 286 282 280 280 280 280 283 284 281 281 283 282 281 278 280 281 281 281 282 281 282 282 282 282 282 282 282 281 280 280 280 280 280 280 280 280 280 280 280 280 279 278 278 278 277 277 276 276 275 275 274 274 274 274 273 273 273 273 273 273 272 272 271 271 270 270 270 269 269
286 285 286 284 284 285 283 282 284 286 284 285 285 285 286 286 284 283 282 281 284 280 278 285 280 279 281 280 282 282 283 281 281 281 282 282 282 282 282 282 284 281 280 280 280 279 280 280 280 279 280 279 280 280 280 280 280 279 279 278 277 276 276 277 276 275 275 274 274 273 273 273 273 272 272 272 271 271 270 270 269 269 269 268 268 268
286 285 285 285 286 287 284 283 283 285 286 286 287 287 285 285 281 280 282 285 284 282 281 284 281 281 283 284 283 284 285 284 283 283 283 283 282 281 281 281 281 281 280 280 280 280 280 280 279 279 279 279 279 279 279 279 277 276 276 276 276 275 276 276 275 274 274 273 273 273 273 273 272 272 271 271 270 269 269 268 268 267 267 267 267 267
288 284 287 286 286 287 284 283 284 284 283 281 281 283 284 283 281 282 283 285 285 284 285 282 280 282 284 281 284 285 285 283 283 283 282 282 281 281 281 281 281 281 281 280 280 280 280 280 280 280 279 278 279 279 278 277 277 277 277 276 275 275 274 275 274 274 273 273 272 272 272 271 271 270 270 269 268 267 266 266 266 266 265 265 265 265
288 282 286 281 280 280 279 279 280 280 281 281 283 283 282 279 280 282 283 281 280 281 281 281 281 281 283 282 283 281 281 282 283 281 281 280 280 281 281 281 281 281 281 281 280 280 280 280 280 279 278 279 278 279 278 278 277 276 276 275 274 274 274 274 273 272 272 272 271 271 270 269 268 268 267 267 266 264 264 265 263 262 263 262 263 263
285 280 279 280 281 279 277 279 278 278 278 279 281 283 279 279 277 278 277 280 280 280 281 279 279 281 284 280 282 281 280 281 282 283 280 280 279 279 280 281 281 281 280 281 281 280 279 279 279 278 279 279 278 278 278 277 276 276 276 274 274 274 273 272 272 271 270 270 270 269 268 268 267 266 265 265 264 263 262 262 261 261 261 261 262 263
284 280 279 279 280 280 276 279 278 278 279 278 280 281 281 281 282 279 280 280 283 284 279 278 280 285 281 279 280 281 280 280 280 279 280 280 279 279 280 281 281 281 281 281 281 280 280 279 279 279 279 278 278 278 278 277 276 276 275 274 274 272 271 271 270 270 269 269 268 267 267 266 264 263 262 262 262 261 260 260 261 260 260 260 260 261
281 282 281 283 280 275 272 275 277 276 272 276 283 285 283 281 281 278 280 281 281 283 280 284 281 278 275 277 279 280 279 278 280 281 281 282 280 278 279 279 280 281 281 281 280 280 279 279 279 279 279 279 279 278 277 277 277 276 275 274 272 271 270 270 269 268 268 267 266 266 266 264 262 262 262 261 261 261 260 259 259 259 260 260 261 261
283 283 281 280 277 272 273 275 273 269 274 281 277 279 282 284 283 282 282 283 281 280 281 279 278 278 279 280 280 280 278 278 277 277 276 278 279 280 280 280 280 280 280 280 278 278 278 279 278 278 277 277 277 276 276 275 275 274 272 272 270 269 269 268 268 267 267 265 265 264 263 264 262 261 261 261 260 259 259 259 259 260 260 259 261 260
281 282 279 276 275 274 271 275 270 272 279 277 276 276 277 277 277 276 274 276 276 278 279 278 279 280 281 280 278 277 277 276 274 274 275 276 279 281 280 280 280 280 279 279 279 278 278 278 278 278 278 277 276 275 276 275 273 272 271 269 269 268 267 266 266 266 265 264 264 263 264 262 261 261 260 261 259 258 260 259 258 259 259 259 259 258
285 282 281 277 280 271 274 274 277 279 278 278 273 275 276 275 274 274 271 275 279 278 277 277 278 279 280 278 278 274 273 275 276 279 275 275 276 279 280 281 280 279 280 280 279 279 279 279 279 278 277 275 276 275 275 273 272 271 269 268 266 266 265 265 264 265 265 263 263 263 262 263 261 260 259 259 259 257 258 259 258 258 258 258 259 259
283 283 283 281 277 277 271 272 271 272 272 278 280 278 278 278 278 278 276 270 274 270 277 277 277 278 277 276 274 272 274 276 275 278 277 276 275 276 276 278 276 277 278 278 277 277 277 276 276 275 276 275 274 273 272 271 270 269 268 267 265 265 265 264 265 264 263 263 262 263 262 262 259 260 258 258 257 257 259 258 257 257 257 258 258 258
281 282 282 283 278 274 273 272 272 271 275 278 275 274 273 274 277 274 271 268 273 271 277 277 277 278 277 277 272 274 273 269 273 277 278 276 275 274 275 275 276 275 276 276 277 277 276 276 275 275 273 273 272 271 270 269 268 268 267 266 265 265 264 264 264 264 263 263 262 262 260 260 259 259 258 257 258 257 257 256 256 257 256 257 256 257
277 277 279 276 275 277 274 272 272 276 273 274 271 272 273 275 278 276 264 264 270 273 276 278 278 277 276 275 273 274 274 268 273 277 276 277 276 275 275 276 275 275 274 274 274 275 275 274 272 272 272 272 272 269 267 267 268 267 267 265 264 264 264 265 264 264 263 263 262 261 259 259 259 259 257 258 257 256 256 256 256 256 256 256 256 256
277 275 277 274 278 277 278 274 273 273 278 273 273 274 274 275 275 267 268 270 273 274 275 278 277 278 276 273 274 272 276 278 278 278 274 274 275 275 275 275 276 275 275 275 275 277 274 274 275 275 274 274 271 267 267 267 267 267 265 264 264 264 265 264 263 262 262 262 260 258 258 258 257 256 256 256 255 256 255 255 257 256 255 256 256 255
272 273 272 276 273 275 276 274 274 277 280 276 276 276 277 276 266 270 276 276 276 275 275 277 277 276 274 275 275 277 278 279 276 275 274 274 276 275 275 275 275 275 274 274 275 274 273 273 272 271 270 269 268 267 266 267 268 267 264 264 265 265 264 263 262 262 260 259 259 258 257 256 255 256 255 254 254 254 255 254 254 255 255 255 255 255
274 272 270 274 275 273 272 272 270 268 278 277 277 275 277 272 273 277 274 275 276 277 275 274 276 275 275 275 276 277 277 274 274 275 275 274 273 275 275 274 274 275 274 273 273 273 273 272 272 272 272 268 267 266 266 266 267 265 264 265 266 264 262 262 261 261 260 258 257 256 255 254 254 254 254 254 254 254 254 254 253 253 254 254 254 254
275 268 266 271 278 268 272 269 270 278 277 279 279 275 276 279 277 276 277 276 275 274 275 275 275 275 275 277 276 275 275 274 273 273 273 273 273 274 273 273 273 273 273 273 273 273 272 273 273 272 269 267 266 266 266 266 267 265 264 266 264 262 261 261 260 259 258 256 255 254 254 253 253 253 252 252 253 252 253 253 253 253 252 254 254 254
278 273 273 271 275 272 270 276 276 276 278 280 280 278 280 280 276 277 277 278 277 275 274 274 276 276 275 276 275 275 274 274 275 275 274 275 275 274 274 274 275 275 275 275 274 273 272 274 272 271 268 266 265 265 265 265 267 264 264 264 262 262 260 259 258 257 255 254 253 252 252 251 251 251 250 252 252 252 253 253 251 253 253 253 254 254
274 275 274 271 271 275 275 276 275 274 276 278 279 277 279 278 276 275 276 276 275 276 276 276 276 276 275 275 274 273 274 275 274 274 274 274 274 274 273 272 272 272 272 271 271 271 271 270 268 268 267 265 264 264 263 263 265 265 264 261 261 261 259 257 256 255 254 252 251 252 251 251 252 251 252 252 252 253 253 253 253 253 254 254 254 253
273 273 273 274 273 272 269 275 275 276 276 277 279 279 277 277 277 277 276 277 277 275 275 276 276 276 275 274 275 276 275 275 274 275 275 274 273 274 273 273 274 274 273 272 274 271 269 269 269 268 267 266 263 263 262 261 261 262 260 260 260 260 257 256 256 256 254 254 253 251 250 251 252 252 252 251 252 252 253 253 252 253 254 254 253 253
272 276 273 273 272 273 272 273 274 274 275 277 279 278 278 279 278 276 278 278 278 276 275 275 274 274 273 272 275 275 275 275 274 274 274 274 274 274 274 273 273 273 272 273 272 269 268 269 270 269 267 267 265 263 262 261 261 259 259 259 260 257 256 256 256 256 254 252 250 252 251 252 255 255 253 253 252 252 253 252 253 253 253 254 254 254
274 275 266 272 272 274 273 273 273 273 274 275 275 276 278 279 279 277 276 276 275 275 274 273 274 275 274 276 274 274 272 274 274 274 274 275 274 274 274 274 274 273 273 271 269 268 270 270 269 270 268 269 266 263 262 262 261 259 259 260 257 256 256 256 255 253 252 251 250 251 253 253 252 252 253 252 252 252 253 253 253 254 255 257 257 257
273 273 273 271 267 267 269 272 273 268 267 275 276 277 278 278 277 276 275 274 274 275 274 274 274 273 274 275 274 273 273 275 275 274 273 275 275 275 274 273 273 272 271 270 269 268 269 268 269 269 268 267 264 263 263 262 261 259 261 259 257 256 256 256 255 253 254 253 252 250 251 252 251 251 252 251 252 252 253 258 262 261 259 259 264 267
274 276 274 272 273 269 273 275 276 278 277 276 278 278 278 278 276 276 276 276 276 276 276 275 274 273 273 273 274 274 274 275 275 274 273 274 275 275 275 274 272 271 272 269 268 266 267 268 267 267 266 266 264 263 263 262 260 259 259 258 257 257 256 256 256 256 256 254 254 253 253 252 252 252 252 252 252 252 253 253 256 262 265 266 266 268
Wind_Speed
1 4 6 10 10 9 7 11 12 3 3 3 3 3 4 5 6 2 3 4 0 1 6 6 5 5 8 2 3 2 4 7 5 5 4 3 3 3 3 4 4 6 5 4 5 7 7 8 8 7 7 6 9 12 11 12 12 12 10 12 13 8 10 10 9 9 8 8 8 11 12 10 8 9 10 11 10 10 9 10 10 12 11 12 13 13
2 4 10 11 6 10 11 5 1 2 2 2 2 3 5 3 9 3 2 2 1 2 2 2 2 7 5 1 4 2 3 5 3 3 3 3 2 3 4 5 5 3 3 6 8 9 8 9 9 8 7 9 14 12 11 11 9 8 11 12 9 9 11 11 9 7 10 7 7 9 8 8 8 9 10 9 10 9 10 13 13 12 10 11 11 11
2 9 12 8 3 3 1 4 4 6 5 1 3 2 2 7 4 9 2 2 2 3 8 2 4 8 1 2 4 4 5 2 3 1 1 2 3 3 4 4 4 4 5 6 6 6 7 8 8 7 7 9 9 9 9 7 8 10 11 10 9 10 10 9 8 9 9 8 8 9 6 7 9 8 7 8 8 9 11 12 12 11 12 12 12 10
2 6 15 2 6 4 0 2 4 2 1 4 1 1 9 2 1 6 1 3 2 1 2 1 3 9 2 5 5 3 2 3 3 4 4 3 3 3 3 3 3 3 4 5 5 5 5 5 6 7 8 8 9 9 9 9 8 7 9 9 10 10 9 9 8 7 6 7 7 9 10 11 11 7 6 9 10 12 14 14 11 11 11 11 11 12
10 2 1 5 5 7 5 2 5 5 5 1 5 5 4 2 4 7 4 2 1 0 1 1 3 6 5 2 1 2 2 3 2 3 4 4 3 1 1 3 3 3 3 3 4 4 5 6 7 7 5 5 10 9 8 8 7 6 9 9 10 9 9 9 9 8 5 6 7 6 8 7 8 10 10 12 12 10 9 10 13 11 11 11 12 11
9 7 3 5 1 2 4 3 6 7 3 2 6 10 7 6 7 4 4 4 7 3 2 0 3 3 3 3 3 2 1 2 1 4 3 3 3 3 4 3 3 3 3 3 3 4 4 5 5 6 6 8 9 9 7 6 6 6 9 10 10 10 10 10 9 8 9 10 9 10 11 12 11 12 12 12 9 9 11 9 6 11 11 11 11 11
7 1 4 5 4 2 4 4 4 7 5 1 6 7 10 6 2 1 0 2 1 1 1 2 3 5 6 2 2 2 2 2 1 3 1 2 2 2 2 2 3 3 3 4 3 4 6 6 6 7 8 6 9 6 4 4 5 7 9 10 11 11 10 9 9 9 9 12 11 13 11 10 10 11 7 4 5 6 6 6 9 8 10 11 12 11
2 1 3 2 3 4 4 7 4 10 7 4 1 3 3 4 5 4 4 5 3 1 3 2 1 4 3 4 0 3 3 1 1 0 0 0 0 1 1 2 2 3 2 2 3 3 4 4 5 6 5 5 6 4 4 5 5 8 9 11 11 10 10 9 8 10 9 11 10 12 11 11 10 10 8 6 6 6 6 9 9 8 9 9 10 11
4 1 3 3 3 4 8 4 5 8 7 3 2 4 5 7 5 5 5 4 1 1 6 4 1 2 3 5 1 1 2 2 4 3 4 3 2 1 0 0 1 1 1 1 3 3 4 4 4 4 5 4 4 5 5 5 5 5 6 9 11 12 10 9 9 11 10 10 9 10 9 11 7 7 7 5 6 7 6 10 8 9 8 9 9 10
1 1 3 6 6 7 3 2 5 11 4 1 5 7 7 6 5 4 5 4 1 1 5 5 2 3 5 4 1 0 3 7 7 8 7 5 4 4 3 1 1 0 1 1 1 2 3 3 3 3 2 4 4 4 4 4 5 5 6 10 13 11 9 8 10 11 10 9 9 11 10 11 8 6 6 6 8 8 6 10 8 7 8 8 9 9
0 3 5 4 5 3 4 2 1 2 1 7 3 6 5 7 4 3 6 3 3 2 8 9 4 4 5 4 8 7 7 4 6 2 3 3 4 4 4 4 3 2 0 0 1 2 1 1 2 3 3 3 4 4 4 5 5 4 6 9 14 9 9 9 9 10 10 8 9 10 10 10 10 8 8 10 10 8 9 10 9 8 7 7 7 7
1 1 0 1 4 3 3 3 4 1 2 4 2 3 3 2 5 3 3 4 1 6 5 1 3 2 7 5 6 6 1 3 11 11 12 10 9 8 7 5 4 3 2 0 1 1 1 2 3 2 4 4 3 4 5 4 4 5 6 9 13 9 8 7 7 9 9 9 9 9 10 11 9 8 9 10 9 8 9 8 8 7 7 8 8 8
4 6 2 3 4 8 3 7 2 3 1 3 5 6 5 3 4 2 2 3 6 5 1 1 2 0 9 8 1 4 7 2 4 2 12 13 11 9 7 6 5 4 3 3 3 1 1 3 3 3 3 3 3 4 4 4 4 5 6 7 13 9 6 7 6 9 8 9 8 8 9 9 8 9 9 8 8 6 7 6 7 8 8 7 9 9
6 2 1 3 2 4 7 7 3 1 3 4 7 6 5 0 0 3 4 1 5 5 3 0 1 3 2 7 3 6 3 2 3 4 4 10 13 12 9 6 5 4 4 4 3 3 3 2 2 2 3 3 3 4 4 4 5 4 5 5 11 8 5 5 7 7 9 9 8 7 8 8 8 8 8 7 7 5 5 5 6 6 6 7 7 7
2 2 6 8 5 3 7 8 9 6 8 7 2 7 7 8 5 4 4 5 5 4 1 4 1 6 4 4 0 3 2 3 5 5 5 6 5 6 5 4 4 4 4 4 4 3 4 3 3 3 3 3 3 4 4 4 4 4 5 6 8 8 5 5 5 6 9 8 7 6 7 7 6 7 7 6 5 5 6 6 6 6 5 6 6 6
5 5 4 3 1 4 10 0 5 6 4 1 2 5 5 7 5 3 4 3 1 2 3 1 5 4 5 1 2 2 1 1 2 2 6 7 6 6 5 7 7 7 6 4 4 4 4 4 4 3 3 3 3 4 3 4 4 4 4 5 6 7 5 4 5 6 7 7 6 6 8 7 6 6 6 6 5 5 6 5 6 6 5 5 4 5
2 4 1 3 2 1 2 2 1 2 6 3 5 5 6 1 3 4 1 2 1 3 9 2 6 4 2 1 0 2 1 1 1 2 5 7 8 6 8 8 8 7 6 5 6 5 5 4 4 4 4 3 3 4 4 4 4 5 5 6 6 5 4 5 5 6 5 6 6 6 6 6 6 7 7 7 5 6 5 5 5 5 4 4 4 5
8 5 1 3 3 1 0 1 3 4 3 8 2 7 1 2 3 3 4 1 3 4 7 3 7 3 2 6 0 1 1 2 3 4 5 6 6 9 10 10 10 8 7 6 5 4 4 4 4 4 4 4 4 4 4 4 4 4 4 5 7 5 6 4 4 5 5 6 6 5 6 6 6 6 5 5 5 4 6 5 5 4 6 6 4 4
4 4 1 1 1 2 1 2 4 2 2 3 2 2 4 3 1 1 4 4 2 4 6 4 1 6 8 7 2 5 6 8 7 5 6 8 9 12 12 11 7 5 5 6 6 6 6 6 5 5 5 5 4 4 4 4 3 3 3 3 4 6 5 5 4 4 3 4 5 5 5 5 5 5 5 4 5 5 7 7 6 6 5 5 5 6
1 4 3 1 2 0 1 4 7 3 1 1 2 2 0 1 1 4 6 3 5 4 2 9 2 10 6 6 12 9 12 10 9 8 12 14 15 14 13 11 10 8 8 8 8 7 7 6 6 7 7 6 6 5 4 4 3 4 4 4 4 4 4 4 4 4 5 3 4 4 5 5 5 4 5 4 6 7 7 5 5 5 6 6 5 5
2 1 5 1 2 1 3 4 8 10 9 2 2 2 0 0 2 3 1 4 4 4 5 3 10 4 3 4 9 9 8 11 15 16 13 13 13 12 10 11 10 10 10 9 8 8 8 8 7 6 5 5 4 4 4 4 5 5 4 4 5 7 5 5 4 4 4 4 4 5 5 5 5 5 5 6 6 6 5 5 5 5 4 4 6 5
2 2 6 1 1 3 5 1 2 3 3 4 9 10 12 8 3 3 9 3 1 4 7 4 14 4 3 2 4 3 3 6 9 8 12 13 13 14 12 10 9 10 10 10 9 8 8 7 7 5 4 4 4 4 4 4 4 4 5 5 5 4 4 5 4 4 4 4 4 5 5 4 4 5 6 6 6 6 5 4 5 4 4 5 4 5
4 3 4 4 6 8 3 1 3 2 2 2 3 4 4 2 3 4 9 5 2 4 4 3 1 9 1 1 2 3 3 4 9 10 11 12 13 12 12 10 9 11 11 9 8 8 8 7 7 7 7 7 7 7 6 5 5 5 5 4 4 5 4 4 4 3 3 4 5 5 4 5 5 5 5 5 4 4 4 3 4 3 4 4 4 4
4 2 1 2 1 3 3 1 0 2 2 1 2 2 4 8 6 6 3 4 6 2 1 1 4 4 1 1 2 3 4 4 5 10 12 9 9 11 11 11 13 12 7 4 5 5 6 6 5 6 7 8 8 7 7 6 5 4 4 4 4 4 4 4 3 3 4 4 5 4 5 5 4 5 4 4 3 3 3 3 3 3 4 3 4 4
4 4 6 2 1 1 2 1 0 0 1 3 2 3 3 1 1 2 5 1 1 7 4 4 12 6 1 1 1 2 1 3 6 7 7 9 6 7 10 10 8 5 4 6 8 8 6 6 8 10 9 8 7 5 6 5 5 5 4 4 4 5 4 2 1 3 3 4 5 4 5 4 4 4 3 3 3 3 3 4 4 3 4 4 5 4
4 4 8 7 11 9 7 7 8 8 10 3 1 2 4 9 6 3 5 3 8 3 6 4 12 4 2 1 1 2 1 2 3 4 1 3 6 10 10 10 7 6 8 8 8 8 11 11 8 7 7 7 6 7 6 5 5 5 5 5 4 4 3 1 2 3 3 3 5 4 5 3 3 3 3 3 3 3 4 4 4 4 4 5 6 5
2 1 5 10 11 13 9 2 0 6 4 8 5 8 7 6 8 6 2 4 11 3 9 13 13 1 3 1 2 2 2 7 8 5 8 9 8 7 6 6 6 9 10 11 9 7 5 5 10 10 7 7 7 6 6 6 6 5 5 4 4 3 3 3 3 3 4 3 4 4 3 3 2 3 3 3 3 3 4 4 4 5 6 5 5 6
3 1 8 7 9 6 3 2 2 2 2 3 4 6 8 9 8 11 12 11 5 2 11 8 5 4 7 4 5 4 6 6 4 6 7 7 8 8 6 5 6 6 5 4 5 8 12 12 8 7 9 8 8 6 6 6 6 6 6 6 4 3 3 3 4 4 4 4 4 3 3 2 2 3 3 3 3 3 4 4 4 5 5 4 6 6
5 7 5 4 7 7 2 4 5 3 5 5 10 12 14 13 10 14 11 11 7 11 16 7 8 6 8 7 9 10 10 10 10 13 12 6 2 3 4 6 8 9 6 7 9 10 10 10 10 10 10 9 7 8 7 6 4 4 3 3 3 3 4 4 5 5 5 4 4 3 3 2 3 2 2 3 3 4 5 5 4 4 4 4 4 5
3 5 5 4 9 8 5 3 4 7 4 3 6 11 12 12 13 12 12 13 14 12 9 3 3 11 6 2 8 9 4 4 3 1 1 3 4 5 6 7 8 8 9 10 11 11 11 10 9 10 10 8 9 9 7 6 6 6 6 4 3 3 3 6 5 7 5 4 4 3 3 3 3 3 2 3 4 4 3 3 4 4 4 4 4 4
4 3 6 3 3 5 1 2 0 3 5 8 10 12 8 2 4 11 11 3 3 5 8 7 9 13 5 6 5 2 2 1 1 4 5 3 3 5 6 7 8 8 7 7 8 8 8 8 9 8 9 10 10 10 9 8 7 6 5 5 5 5 5 5 6 5 6 5 4 4 3 3 3 3 3 3 3 2 3 4 3 3 3 3 3 4
4 3 3 2 6 3 1 5 2 1 2 6 13 15 6 6 8 7 5 6 7 11 8 5 9 12 4 5 3 3 4 5 8 7 4 4 5 4 6 7 7 6 6 8 9 7 7 9 10 10 12 12 10 9 8 8 7 6 6 6 7 6 5 5 5 6 5 5 4 3 4 3 3 3 3 3 3 3 3 3 3 3 4 3 4 4
6 5 5 4 7 6 1 4 6 4 1 9 20 16 11 12 8 3 3 6 12 7 6 9 13 8 2 4 3 6 6 7 5 4 6 6 5 7 9 9 7 6 7 8 8 9 10 11 12 13 12 9 10 10 10 8 8 8 8 8 6 6 5 5 5 5 5 4 4 3 3 3 3 2 3 3 3 2 3 3 3 4 4 4 3 3
4 7 7 6 8 2 1 4 3 4 9 17 1 7 15 14 14 10 9 12 8 8 8 8 6 2 4 4 7 9 8 6 8 11 6 6 6 6 7 5 6 8 8 8 7 8 9 8 8 9 10 10 9 9 6 7 8 7 6 7 6 7 5 6 4 5 5 4 3 3 3 3 3 2 1 1 1 1 2 3 3 3 2 3 3 4
7 6 5 2 5 4 3 5 2 9 18 1 1 5 5 13 14 18 17 11 7 9 9 6 5 5 7 10 11 8 4 6 4 4 4 4 5 6 7 8 10 10 11 8 7 7 8 10 9 6 5 7 7 6 7 5 5 7 6 7 7 5 7 5 6 5 5 5 4 3 2 3 2 1 1 1 1 1 2 3 3 3 3 3 4 5
6 6 2 1 4 4 4 6 7 10 1 3 6 3 4 6 2 2 5 6 8 11 11 7 8 11 12 11 5 2 3 2 3 4 5 5 7 8 7 9 10 9 8 9 11 11 9 10 11 12 12 6 6 6 7 8 7 9 8 5 7 6 5 6 5 6 5 5 4 3 3 2 1 1 1 1 1 2 3 3 3 4 4 3 3 3
9 5 4 4 3 6 5 9 12 5 6 3 2 3 5 5 6 7 7 7 11 8 8 8 10 13 11 7 3 1 1 0 4 8 4 7 8 8 10 9 7 9 10 9 9 10 10 10 9 8 5 6 7 8 8 7 8 8 8 7 5 5 5 5 5 5 5 4 4 3 2 2 1 1 1 1 2 3 3 3 4 3 3 4 4 4
3 10 6 6 4 7 5 3 2 3 12 9 4 3 1 3 5 4 4 7 4 2 9 10 11 14 10 4 2 2 2 2 6 9 3 6 5 6 5 5 4 5 6 6 3 3 4 4 3 3 7 8 6 6 6 8 9 9 8 7 6 5 6 4 5 5 5 5 4 3 2 2 1 1 1 1 2 2 2 2 2 3 2 4 5 6
4 1 2 9 4 5 3 5 5 7 7 3 3 2 0 1 8 4 1 8 5 7 10 12 11 9 7 6 3 5 3 2 8 9 4 4 4 5 6 7 6 6 5 6 8 8 7 6 6 6 5 6 8 7 7 8 9 9 8 7 7 5 5 5 5 6 6 5 4 3 3 1 1 0 0 1 2 2 3 3 4 3 3 4 4 5
3 2 2 1 2 6 4 5 7 3 5 1 3 1 3 3 5 4 4 8 4 8 5 7 9 7 7 4 7 6 8 7 7 9 3 7 7 6 8 8 7 7 7 5 5 4 4 7 7 5 6 9 10 8 9 8 8 7 8 7 6 6 6 7 7 5 4 4 4 3 2 1 0 0 1 2 2 2 3 3 3 4 4 4 4 5
1 1 2 9 8 8 10 6 2 6 4 2 7 4 4 2 5 3 14 6 2 6 5 7 7 8 6 7 8 7 10 9 7 4 2 2 2 3 5 6 7 5 6 6 6 5 7 8 10 12 13 9 9 10 9 8 8 8 6 7 6 8 8 5 5 5 5 4 4 3 2 1 1 1 1 1 2 2 3 3 4 4 4 5 5 4
2 3 4 0 6 9 7 8 9 6 5 6 0 9 7 5 3 12 4 2 9 7 7 9 8 4 7 11 9 9 9 10 2 0 2 4 6 4 4 4 3 1 1 2 6 6 5 6 6 4 3 5 10 9 9 9 9 7 7 6 9 8 4 6 6 6 4 4 3 2 1 1 1 1 2 2 1 3 4 3 3 3 4 4 4 6
9 7 5 7 2 3 1 6 3 9 3 11 11 2 3 5 6 4 2 1 4 7 8 6 6 6 8 8 10 11 9 3 4 6 5 4 4 6 6 4 5 7 7 4 4 6 8 7 8 10 9 7 9 9 9 9 9 8 7 10 10 5 6 6 6 6 4 4 3 2 1 1 1 2 1 2 3 3 4 4 3 4 4 5 5 6
3 5 3 4 5 6 9 9 10 6 4 14 16 9 6 9 5 5 7 5 3 4 6 7 7 8 10 10 11 9 7 6 5 4 4 4 6 6 5 4 4 3 3 5 4 6 8 9 9 8 5 7 8 9 9 12 12 9 10 12 4 6 5 6 5 5 4 4 3 2 1 1 2 2 2 3 3 2 4 4 4 4 4 4 5 6
7 9 6 7 4 9 9 8 1 2 10 11 7 3 8 8 5 8 6 7 7 6 4 4 8 8 11 10 8 8 5 6 8 6 5 7 6 6 7 9 9 9 9 10 10 8 9 12 12 10 7 7 8 8 9 8 12 10 12 5 7 7 8 6 6 5 4 4 3 2 2 2 3 3 3 3 2 3 4 4 3 4 3 4 4 5
3 2 3 3 5 3 2 3 1 1 3 8 5 3 6 5 3 4 6 4 5 6 9 9 8 7 9 7 6 4 6 7 6 6 6 6 6 7 5 4 5 6 6 4 2 6 10 7 4 6 9 7 7 8 7 8 9 14 9 6 7 7 7 7 6 5 5 4 3 3 2 3 3 3 3 4 3 4 4 4 4 4 5 4 5 5
3 2 1 4 2 0 7 2 7 6 3 6 10 6 2 1 6 6 4 6 5 6 8 7 6 6 7 9 10 9 9 8 7 8 6 5 7 8 7 8 8 8 9 9 12 8 7 7 8 10 10 12 9 9 8 8 6 5 6 8 8 8 7 7 6 5 4 4 4 3 3 3 3 3 3 3 3 4 4 4 3 4 5 5 6 6
4 4 2 5 3 6 5 3 2 3 2 6 8 8 7 10 8 6 7 6 6 4 5 6 2 1 5 6 10 9 9 7 6 7 6 7 8 8 7 8 10 7 8 10 6 6 6 7 11 12 11 13 12 10 9 8 8 6 7 7 8 8 8 7 6 6 5 4 4 3 3 4 4 4 4 4 3 4 4 4 4 4 6 6 6 5
3 4 4 5 6 3 3 1 0 2 2 4 5 7 9 7 6 5 6 7 5 5 3 2 5 6 7 9 7 6 5 7 7 8 7 7 7 7 8 10 9 10 8 5 5 7 10 10 11 13 13 13 8 9 9 9 7 7 9 9 8 9 8 7 5 5 4 3 3 4 3 4 4 4 4 4 4 5 5 5 4 6 7 8 7 7
5 7 2 3 1 6 7 4 6 3 4 6 9 13 13 12 7 5 2 4 6 7 7 6 7 5 6 6 6 7 8 9 8 6 8 10 10 9 7 8 8 8 8 7 6 9 10 10 12 11 11 7 6 9 9 9 8 8 7 8 8 9 9 8 6 5 5 4 4 4 4 4 4 4 5 4 5 5 5 8 12 9 7 7 12 18
9 12 7 7 11 5 3 10 10 9 7 7 9 10 11 7 5 7 9 9 9 8 8 6 7 6 7 9 7 8 9 9 11 7 7 8 10 10 9 8 7 7 9 6 6 7 10 12 10 9 9 9 9 10 10 9 10 10 9 9 9 9 9 8 7 6 5 6 6 6 5 5 5 4 5 5 4 4 5 6 7 10 13 15 14 15
Wind_Direction
105 146 187 212 210 198 209 199 208 213 131 116 106 114 204 220 273 285 270 250 216 340 250 232 230 247 272 35 332 4 52 59 56 60 57 43 44 40 35 34 32 36 29 343 1 10 4 3 5 4 9 14 36 31 23 33 32 33 30 40 37 20 29 43 43 42 44 53 64 59 58 65 47 48 51 47 36 36 30 29 33 39 38 34 33 28
73 172 238 229 201 194 212 215 149 105 98 164 142 177 267 183 260 239 229 358 314 172 296 159 223 248 238 33 352 359 76 46 51 90 76 78 62 43 46 38 24 6 8 16 18 8 10 9 7 10 10 23 36 16 20 30 28 36 39 46 37 28 36 36 37 54 58 48 56 83 73 72 56 44 42 43 35 34 34 35 32 30 24 31 30 27
112 205 235 234 139 108 74 174 196 200 213 105 203 234 284 263 238 280 281 341 284 136 262 331 291 275 321 63 41 45 62 64 35 47 58 80 52 45 40 38 32 32 30 22 13 11 10 6 9 15 8 33 37 23 16 6 33 39 45 44 43 37 39 34 30 48 60 59 55 71 67 67 74 59 63 61 47 41 43 41 35 30 30 32 36 32
236 270 248 147 144 141 62 104 147 149 110 197 100 166 238 213 39 300 292 9 12 126 287 35 330 293 78 69 62 36 73 94 69 70 64 60 72 63 54 53 40 33 30 26 9 4 2 14 18 21 22 29 42 31 14 7 23 41 49 51 51 48 44 40 30 47 55 70 81 78 81 73 69 67 55 60 48 42 41 38 34 36 35 34 35 30
210 220 343 136 151 165 190 158 143 155 229 271 191 209 238 187 234 186 253 316 317 38 74 110 338 309 275 219 85 59 103 91 32 54 51 34 39 45 74 59 42 44 16 16 7 6 12 25 27 24 12 28 53 39 21 5 9 41 51 57 60 57 54 50 42 41 51 72 67 73 83 87 83 54 47 45 38 36 41 44 36 30 30 35 39 35
276 255 107 72 81 149 158 185 207 144 219 304 230 205 212 213 235 272 339 5 12 336 348 84 334 302 303 285 184 184 24 36 9 63 32 19 18 24 44 32 14 24 22 19 356 355 2 21 21 28 19 39 52 43 17 359 356 36 53 57 60 58 51 46 44 46 60 60 66 62 55 50 53 53 41 42 36 32 37 40 34 38 34 34 39 36
215 322 168 212 146 142 174 198 228 159 183 125 267 197 213 213 181 161 129 89 302 203 330 39 188 264 323 313 200 171 98 71 19 50 8 11 13 22 30 16 12 10 4 4 11 8 24 11 30 29 27 22 52 38 14 12 11 35 53 59 59 58 54 45 44 43 61 68 65 70 75 76 71 79 59 56 47 54 45 48 44 39 36 35 38 35
136 312 90 78 142 165 195 242 230 165 138 226 247 136 144 151 182 198 154 168 217 256 299 27 133 207 303 289 148 163 128 70 82 312 360 267 326 31 18 15 10 6 6 352 357 11 13 17 21 36 13 18 33 26 33 43 26 41 50 61 63 61 59 48 51 57 53 74 73 76 76 72 70 70 78 51 51 49 48 51 43 39 39 37 39 37
145 184 166 177 179 184 220 207 184 164 146 221 195 137 149 161 176 136 131 147 174 30 283 318 271 318 244 262 4 169 200 235 239 215 211 215 212 208 250 360 14 7 349 4 13 15 14 12 12 12 29 5 26 29 45 47 41 40 52 67 69 64 61 53 55 65 60 70 76 81 82 80 69 76 73 71 59 54 42 54 39 40 35 36 35 38
336 191 220 168 153 222 226 297 169 169 199 242 122 87 84 81 73 118 111 115 356 88 260 256 191 231 275 280 319 341 275 254 206 210 203 202 199 198 194 213 188 111 32 5 4 9 10 360 359 357 16 29 21 26 41 46 54 52 57 68 71 66 64 62 63 68 67 68 77 79 78 84 77 69 69 64 56 49 41 53 43 37 36 30 31 30
224 302 152 125 193 209 130 56 148 297 78 129 98 68 25 38 31 30 62 96 74 248 239 220 217 183 288 249 214 153 216 196 152 188 199 206 217 222 219 202 184 168 79 47 8 5 14 344 7 6 42 41 38 35 47 53 55 59 65 74 71 65 66 62 67 72 74 72 72 79 79 81 80 69 65 59 48 41 41 43 37 35 31 32 33 26
354 33 156 240 98 113 100 77 25 70 133 127 117 123 65 1 9 34 342 29 157 265 262 249 198 139 183 284 265 222 253 192 166 181 183 190 195 199 196 198 194 183 173 202 95 67 34 47 34 42 72 53 47 51 58 62 62 71 72 79 81 65 65 67 72 77 77 80 77 79 81 81 78 76 72 67 61 48 51 44 39 27 31 26 24 24
273 235 226 320 192 134 109 80 9 27 14 79 88 72 117 248 39 286 14 254 216 216 220 360 135 47 236 226 208 195 198 210 228 206 183 180 188 191 198 192 181 180 179 174 176 174 127 125 122 96 85 81 69 82 82 75 78 75 76 81 89 74 67 71 76 81 82 81 78 81 82 82 79 76 75 71 70 54 56 47 44 35 34 21 24 18
274 285 193 233 91 216 141 140 178 89 217 126 154 144 100 192 147 254 267 254 310 286 268 283 135 272 245 281 217 187 205 200 236 229 207 189 183 184 184 180 178 183 188 189 183 182 180 178 164 162 143 128 120 96 86 84 82 83 85 82 90 88 74 79 77 81 83 77 77 75 79 77 77 76 75 73 74 65 63 55 52 46 36 31 29 16
239 320 246 148 238 169 174 188 178 163 162 209 99 149 182 144 155 233 181 214 222 202 258 276 67 231 137 227 210 237 253 263 242 228 215 197 187 170 156 154 169 188 207 193 187 190 187 202 210 191 165 158 140 121 104 97 98 97 95 93 98 97 82 86 92 91 88 86 81 81 82 83 81 83 78 75 73 63 56 46 50 44 35 35 18 18
211 231 264 277 286 147 179 192 116 101 59 184 166 78 98 229 139 232 205 158 230 325 332 193 209 188 180 190 280 293 285 320 344 184 165 170 153 146 154 178 193 200 197 191 186 195 214 214 206 203 199 186 158 139 131 123 128 115 116 108 105 112 120 108 99 92 96 93 91 84 83 81 83 82 81 73 63 57 60 51 52 38 36 27 15 4
45 270 289 331 62 119 169 143 127 144 207 211 106 198 208 145 104 81 44 31 77 48 255 147 302 296 313 308 343 321 61 345 43 105 152 163 166 166 185 194 202 202 193 193 194 194 198 207 217 206 197 184 172 155 154 160 158 144 136 124 114 110 102 100 101 102 96 100 95 87 87 85 81 79 75 74 65 62 52 57 46 46 26 21 16 7
142 235 285 116 208 352 180 164 117 40 147 100 180 232 174 144 118 138 230 352 68 204 268 97 216 263 107 270 65 14 288 263 228 172 183 171 163 186 199 199 202 198 196 197 201 197 197 201 200 206 208 200 183 170 164 163 166 148 136 128 122 120 115 119 113 108 111 107 97 94 88 77 78 81 78 72 70 63 62 49 48 41 33 23 7 13
128 276 294 326 129 317 3 124 56 9 53 147 189 211 122 220 209 295 85 261 254 260 271 287 278 260 181 230 100 245 212 221 202 192 171 189 191 202 204 207 203 195 188 196 202 197 196 199 202 198 201 202 199 188 177 164 154 142 137 142 133 134 138 138 129 121 108 100 95 95 94 97 82 73 72 64 61 56 51 41 34 33 23 11 10 11
46 160 286 331 138 226 34 99 193 193 352 60 83 67 302 118 198 128 201 180 116 261 42 283 64 253 185 212 176 199 207 200 173 181 202 200 199 197 201 198 195 191 196 199 199 196 193 197 200 197 193 192 194 188 186 169 155 159 158 139 130 120 118 110 116 117 108 118 119 109 90 71 77 68 69 62 57 51 49 40 35 26 23 14 6 15
150 133 231 301 287 99 174 185 212 163 168 133 116 249 195 360 223 104 24 135 184 182 204 259 294 277 260 208 176 201 196 189 174 190 196 200 203 206 202 195 193 192 199 201 194 190 191 195 199 199 199 199 197 190 174 168 169 168 161 153 156 138 137 121 137 120 126 118 102 92 84 75 67 59 56 55 49 52 43 36 33 31 18 5 15 9
133 165 192 183 131 215 232 244 173 183 193 184 178 195 182 140 160 189 250 74 103 142 232 170 255 283 265 153 202 203 217 181 205 183 187 198 199 198 199 202 192 195 206 200 193 185 187 193 195 197 197 195 180 193 191 196 167 161 157 154 147 128 128 127 124 123 130 116 105 89 84 77 69 63 51 52 43 40 37 26 27 23 16 26 2 11
154 134 106 187 199 200 211 236 203 180 160 187 167 248 178 205 102 143 229 235 28 256 101 191 15 265 235 220 252 241 228 217 189 181 196 198 198 198 201 197 200 203 202 193 183 187 190 190 189 190 189 190 193 194 190 184 180 171 161 152 138 128 154 151 158 148 131 98 82 73 76 71 57 56 50 51 43 37 33 26 25 28 28 24 7 6
117 110 112 300 309 316 311 332 4 175 127 67 288 96 137 201 192 219 230 171 177 171 213 291 237 266 293 178 253 252 250 241 189 186 195 196 197 198 194 197 202 204 195 162 179 188 191 185 186 187 195 196 198 193 188 190 186 180 171 160 145 159 184 198 176 124 86 84 77 79 74 66 57 60 56 52 46 39 31 32 31 28 31 31 8 7
142 234 139 150 8 341 351 314 279 67 81 202 197 213 191 155 78 122 95 73 190 212 201 129 251 261 259 34 356 33 60 168 195 205 192 195 197 197 203 209 209 187 159 182 190 191 186 187 194 201 195 192 193 193 192 190 188 180 188 174 179 201 206 194 102 90 86 98 91 75 78 65 61 65 53 50 43 36 36 36 31 26 24 21 10 6
150 170 147 187 212 214 214 186 212 218 213 204 193 157 215 184 154 128 223 169 235 175 151 210 255 243 294 327 78 41 46 224 249 221 227 212 193 199 208 208 197 180 196 195 192 181 192 198 200 199 199 191 194 195 193 193 189 188 189 199 194 194 192 185 103 108 106 110 100 88 78 69 61 58 51 48 39 39 36 34 29 23 22 19 4 4
161 153 192 204 203 226 228 184 302 104 92 182 218 179 202 195 205 198 104 192 225 176 198 228 240 200 281 224 248 243 195 200 205 193 204 215 221 220 213 199 189 197 201 199 191 185 178 196 206 204 193 196 198 196 190 186 192 193 190 186 190 185 170 164 140 133 119 110 110 101 97 82 68 67 55 51 44 44 38 32 26 23 21 13 7 5
85 199 232 228 235 237 111 146 200 147 153 221 182 231 219 211 185 190 204 229 149 173 248 229 101 177 237 220 224 221 224 229 235 206 213 226 217 201 202 194 195 202 204 170 170 183 198 206 200 194 200 201 204 196 193 193 191 189 183 190 189 175 164 156 141 137 126 125 115 116 122 100 100 75 64 58 54 51 40 30 27 24 15 14 10 10
148 216 214 158 258 257 189 188 166 170 214 207 217 225 229 222 200 205 218 226 173 215 244 236 167 210 239 210 196 207 201 197 197 206 210 203 153 145 151 181 201 209 197 189 201 202 205 203 197 197 200 203 196 193 195 187 180 172 175 172 165 158 176 154 134 134 136 129 129 134 130 118 94 84 78 65 57 49 31 28 25 20 16 17 12 5
123 243 227 179 233 247 244 171 162 189 197 219 235 230 226 213 210 204 217 220 215 231 251 303 178 231 225 156 184 219 216 206 232 25 73 154 179 172 185 203 209 213 204 205 207 207 208 205 197 199 198 197 197 196 188 184 189 186 178 177 162 146 149 137 144 142 143 138 136 131 120 110 93 76 70 55 47 42 27 30 22 17 17 17 9 356
139 270 136 140 220 243 189 65 261 203 196 227 242 240 222 171 189 203 216 193 56 288 268 252 252 264 242 174 202 254 154 170 337 251 232 222 197 197 197 212 218 217 214 217 219 217 211 205 204 199 197 201 199 195 187 189 190 179 172 164 158 158 163 147 145 143 143 139 136 119 105 93 77 69 62 52 47 33 26 24 14 17 17 13 4 356
158 247 63 149 202 267 178 159 131 56 28 254 259 247 142 181 220 205 190 200 197 224 227 233 250 254 232 132 203 224 196 185 211 226 213 230 220 193 208 227 227 228 221 220 221 213 207 205 203 202 204 203 197 190 188 187 182 168 177 165 167 164 151 142 141 139 133 128 118 106 96 93 84 70 56 46 30 24 17 14 8 11 8 358 359 353
182 147 157 174 212 210 279 140 148 120 293 279 247 235 195 216 215 67 226 217 217 201 202 224 240 248 229 151 166 233 222 229 239 237 235 234 215 204 218 227 230 233 230 228 221 213 209 205 204 205 206 197 193 191 196 178 165 183 172 169 169 143 144 140 135 128 122 119 112 107 104 97 84 73 53 42 26 17 8 13 3 6 358 356 343 335
146 167 198 181 211 137 31 133 131 154 225 237 347 150 182 208 209 204 219 221 211 175 209 214 245 98 131 180 206 234 213 211 211 228 211 209 206 221 239 241 237 231 235 234 228 219 217 212 213 211 203 196 195 194 176 171 176 175 160 151 142 149 147 135 128 126 130 124 121 121 114 99 88 73 62 47 26 16 8 10 3 345 334 335 339 342
181 197 198 146 130 170 147 116 163 216 235 11 360 338 208 200 192 208 222 233 221 219 236 260 275 255 226 214 217 230 212 229 244 232 244 216 188 201 209 223 226 226 228 227 225 222 215 210 207 200 195 204 192 166 146 165 152 137 138 148 147 150 140 137 135 135 142 138 133 125 115 108 104 94 82 38 31 15 5 360 343 347 346 350 336 331
168 174 144 41 110 63 124 183 223 243 10 321 353 351 25 72 53 89 318 270 239 223 214 214 235 239 243 241 237 182 206 241 290 255 225 224 203 200 207 221 224 219 221 217 209 216 205 199 197 195 203 176 147 166 172 168 153 148 152 142 146 147 144 142 140 147 145 143 143 140 135 126 117 98 71 33 16 17 353 349 342 335 333 331 315 294
168 117 157 194 183 171 201 196 236 7 319 222 28 276 166 155 173 162 224 253 232 207 175 195 219 244 243 251 218 118 76 65 335 284 208 213 216 211 207 218 209 213 215 223 206 212 205 200 197 197 157 157 170 164 175 152 150 144 142 146 152 145 147 142 151 166 162 152 152 144 134 116 103 69 32 24 10 355 341 335 328 326 322 319 306 307
211 178 192 188 244 137 159 215 308 258 250 245 217 209 92 172 135 169 159 281 291 198 184 179 209 230 238 225 110 102 73 37 305 278 231 226 211 209 234 243 249 228 225 224 219 227 194 192 164 152 166 163 165 163 143 148 149 147 148 154 155 149 155 158 180 173 165 162 155 140 121 109 100 61 15 11 346 322 310 307 301 298 304 305 308 305
355 71 177 201 199 76 172 214 212 223 254 132 211 186 253 164 127 102 87 273 259 190 201 177 205 225 213 192 167 119 95 199 251 257 254 250 248 205 210 230 223 230 221 205 194 196 191 180 165 155 135 147 160 162 150 150 149 148 159 161 163 160 166 190 184 178 176 167 150 127 123 118 113 103 345 317 299 300 302 302 294 290 293 280 283 286
27 349 104 106 186 210 178 229 234 236 244 309 151 209 214 178 126 70 320 273 264 198 191 166 197 212 206 181 137 144 152 202 243 257 214 205 213 204 191 214 219 225 227 211 224 210 168 139 119 134 154 178 185 153 154 152 153 159 162 169 159 172 194 200 191 176 149 138 132 127 123 125 129 180 250 274 290 293 281 285 294 287 293 292 285 292
181 324 232 209 211 221 228 251 342 284 264 170 171 151 188 189 83 109 243 234 226 190 191 183 195 206 165 143 160 163 224 201 207 209 161 173 137 234 237 227 224 206 211 204 208 163 154 175 175 180 190 187 157 155 157 156 152 171 170 163 171 204 204 182 153 148 148 136 130 127 132 134 156 234 267 250 264 276 284 281 285 295 296 295 297 293
346 102 326 39 220 225 230 241 239 267 230 148 344 149 171 91 211 226 240 194 148 195 197 195 196 191 157 173 186 206 218 224 221 71 170 189 197 226 227 228 221 215 213 196 172 168 174 179 195 176 142 153 158 161 163 161 169 172 167 168 205 207 154 150 151 145 142 142 139 140 139 174 247 236 242 268 267 279 275 265 268 279 287 288 293 295
187 142 208 195 216 63 102 242 281 259 240 120 127 45 286 171 241 168 150 277 195 174 171 207 201 203 169 201 209 209 226 247 217 224 231 223 220 241 240 203 192 202 200 165 177 197 172 179 193 202 192 164 164 165 171 165 173 178 174 199 211 154 152 151 149 149 147 142 146 152 179 208 235 264 248 258 254 257 276 281 286 283 283 288 289 284
207 97 238 246 186 166 194 203 217 224 119 157 143 183 207 206 189 151 131 186 215 165 180 180 217 200 192 193 201 225 233 240 273 247 247 251 236 248 250 235 234 242 225 223 218 193 179 194 199 198 177 172 173 175 174 174 178 183 188 214 144 145 143 148 148 145 144 150 161 164 198 236 254 249 249 252 263 266 273 283 278 281 274 277 278 284
221 185 182 190 205 160 197 213 200 166 160 190 168 155 198 200 153 181 146 169 175 233 186 180 209 203 199 201 204 196 218 228 229 231 206 236 232 228 230 224 213 213 210 205 209 191 188 195 196 190 183 185 182 185 185 187 182 178 201 188 141 156 156 153 147 147 160 171 178 188 225 254 247 251 255 253 234 256 265 275 266 280 267 266 277 274
330 135 171 85 262 265 275 172 139 24 190 197 248 203 198 207 193 148 170 157 226 194 169 189 215 196 196 197 183 228 209 228 224 247 236 245 245 247 243 256 256 242 237 229 198 179 202 206 188 177 191 195 192 192 190 196 179 186 199 142 158 153 152 149 147 162 181 188 186 207 211 240 264 256 248 252 235 231 242 248 264 267 280 273 268 263
244 134 132 193 273 205 264 88 143 179 183 195 213 233 245 239 208 199 212 227 221 180 200 219 210 195 186 173 190 204 220 216 221 237 237 240 242 242 231 225 236 225 217 211 219 185 177 183 189 198 196 202 200 194 196 192 202 181 136 162 152 151 146 149 161 172 181 194 201 207 199 215 255 268 256 239 242 239 244 240 241 249 266 261 266 265
307 175 117 237 238 192 251 171 212 344 243 212 206 215 238 244 235 211 215 224 232 211 193 209 159 159 143 183 205 200 223 219 205 234 239 235 237 239 234 230 235 243 233 223 217 172 184 188 204 206 200 210 200 192 188 189 189 166 152 149 153 142 143 153 168 180 193 201 194 211 204 214 239 240 255 250 233 251 259 245 225 235 248 251 250 256
182 115 217 191 200 222 89 33 328 1 346 272 253 250 240 236 237 224 214 227 236 235 228 196 197 195 181 213 196 199 223 247 219 221 231 243 244 239 233 229 229 231 239 231 210 178 196 203 208 214 205 216 185 178 185 190 180 167 157 149 147 147 149 164 169 175 187 194 184 226 221 218 223 225 234 255 255 243 233 245 249 250 256 242 230 233
97 230 194 85 248 239 186 190 158 128 251 243 231 230 233 235 225 234 225 234 234 232 221 210 236 220 212 219 185 184 208 241 241 212 226 235 239 242 238 232 232 228 233 219 187 193 206 207 209 215 216 211 164 180 188 185 166 158 162 151 152 153 159 165 165 173 201 194 204 222 226 230 229 227 230 235 249 264 275 248 254 249 241 243 256 257
180 218 153 193 222 242 194 190 190 206 230 222 212 222 226 231 194 215 233 233 235 225 219 209 232 246 237 240 208 195 220 231 246 224 223 240 243 238 233 230 230 227 228 205 187 206 208 215 209 210 211 198 173 182 184 181 169 164 171 160 160 163 166 160 169 181 195 192 212 210 211 217 228 225 226 232 237 242 264 299 292 283 280 276 273 272